Theta_e
302 302 301 303 302 303 304 305 305 308 310 309 308 307 307 306 306 309 308 311 311 308 306 306 307 307 310 310 312 311 307 308
302 301 300 302 304 304 304 305 306 307 309 310 309 311 306 306 307 311 311 311 311 311 311 309 305 304 307 307 310 309 307 306
301 300 300 302 303 304 304 305 306 307 310 309 309 312 309 310 309 312 313 309 311 312 308 305 302 303 304 305 305 307 307 305
304 303 302 303 304 304 305 305 306 308 310 310 312 312 312 311 306 308 311 309 309 312 311 306 300 304 303 304 305 304 311 312
305 304 304 303 304 305 304 305 307 308 308 311 312 309 311 311 307 306 308 306 307 306 307 308 301 300 301 300 302 302 306 311
310 307 306 304 304 304 304 306 306 308 309 311 312 310 310 311 310 306 305 305 306 305 310 309 302 301 301 298 300 302 304 306
312 312 312 311 307 305 304 305 306 309 308 310 312 312 306 307 310 307 305 304 304 307 311 308 308 302 300 298 298 297 304 306
311 312 313 310 312 312 306 306 305 305 310 311 313 313 311 308 309 307 309 307 307 308 307 306 307 305 303 299 297 297 299 302
309 309 310 311 313 308 309 308 307 308 311 312 312 312 310 308 306 309 311 310 312 306 306 305 305 305 304 300 298 297 298 298
307 306 306 308 310 311 311 308 311 310 311 312 311 312 312 311 308 309 308 311 311 306 304 305 307 306 303 302 299 297 298 296
304 304 305 307 309 308 308 310 313 312 311 308 311 312 312 311 310 310 306 304 307 308 309 309 305 306 305 302 301 298 297 294
304 303 304 305 308 311 311 310 312 313 312 311 311 311 308 311 311 309 305 304 302 302 305 304 304 299 303 304 303 300 298 298
302 302 303 305 307 307 309 311 313 312 311 311 311 309 306 310 312 311 308 306 305 305 304 302 300 298 302 303 300 300 298 298
302 302 303 304 307 306 307 309 310 309 308 308 309 310 305 309 311 311 305 301 301 298 298 301 302 298 296 295 296 295 295 293
304 303 304 305 305 306 307 309 308 307 305 307 308 309 309 306 307 310 308 308 301 300 297 295 296 298 295 293 292 292 291 291
304 304 304 305 305 305 306 308 307 306 306 304 307 308 306 307 305 306 310 309 309 306 302 301 298 294 293 292 292 291 290 290
303 302 301 303 300 300 305 307 305 304 303 305 307 306 305 304 306 308 307 309 308 306 304 302 297 292 291 292 291 293 292 292
299 297 298 298 299 300 301 305 305 302 302 301 299 305 304 304 305 307 309 307 309 309 307 304 301 294 294 292 291 291 291 293
299 299 300 299 298 300 301 303 302 300 299 299 298 301 304 303 304 307 308 309 309 309 309 307 294 302 304 302 299 295 295 296
298 298 297 298 299 298 300 303 302 300 298 297 297 298 302 304 304 306 307 308 308 309 310 309 292 299 304 304 303 303 302 300
Wind_Speed
5 4 6 7 6 6 5 6 5 5 3 2 3 4 4 5 6 5 4 5 4 3 3 4 5 4 5 5 5 5 5 5
5 6 7 7 7 7 6 6 4 4 5 4 4 5 5 6 5 5 3 4 4 3 4 5 3 3 4 5 6 6 4 4
2 5 7 7 7 6 6 6 5 4 6 4 5 6 5 4 4 5 4 2 4 3 1 1 2 2 2 5 5 6 5 4
4 7 8 8 8 7 6 7 5 3 4 5 6 6 5 6 4 4 3 3 3 3 1 3 2 1 4 5 3 3 4 3
9 4 8 8 8 8 8 7 4 4 5 5 5 5 4 5 5 4 5 4 2 2 2 4 4 3 4 5 5 3 3 4
12 7 6 8 6 7 6 7 6 5 5 4 5 6 5 4 2 2 3 3 4 3 4 5 5 5 7 5 4 4 3 4
5 5 1 4 7 8 7 7 6 5 6 5 5 5 5 4 4 3 3 3 3 4 4 4 6 7 9 7 2 2 3 5
7 7 6 6 9 9 6 8 5 7 6 6 4 4 5 6 4 5 3 4 5 3 5 4 7 7 9 8 6 1 2 3
8 8 8 10 8 5 6 9 9 9 6 5 6 5 6 7 5 3 3 5 5 5 5 5 6 7 7 9 9 4 3 2
8 7 8 10 10 5 8 8 9 6 6 6 7 6 5 4 5 4 4 4 5 5 4 6 5 7 10 10 11 10 7 4
6 6 8 8 10 7 9 10 7 5 7 7 6 7 5 5 5 5 3 4 4 4 4 5 5 4 5 12 12 11 9 4
6 7 7 7 8 10 9 10 7 6 7 9 6 5 6 5 3 4 4 4 4 4 4 4 4 3 4 4 5 4 6 5
6 6 6 6 6 7 6 8 6 4 6 7 8 5 6 5 5 5 5 6 6 5 5 4 3 4 6 7 7 5 5 4
6 7 7 7 6 6 6 6 5 5 4 5 6 6 5 4 3 4 8 11 11 11 12 6 4 10 9 9 12 11 10 10
5 7 7 7 7 6 6 6 4 3 3 4 4 4 6 5 4 3 5 6 5 9 10 10 13 11 11 10 9 10 10 8
6 7 10 10 8 8 9 7 6 6 5 7 4 3 5 5 3 4 4 4 3 5 8 5 5 7 11 13 12 8 2 3
7 10 10 10 11 12 13 9 5 6 5 4 4 3 4 5 5 3 4 4 4 5 4 5 4 3 4 6 7 4 5 5
8 7 6 9 10 12 13 11 6 5 7 9 7 6 4 4 4 4 4 3 5 5 3 4 1 1 2 5 6 4 4 5
5 6 6 9 10 13 12 11 6 5 5 7 10 5 5 4 5 5 4 5 3 3 6 7 7 5 5 5 5 6 7 7
7 8 8 9 9 11 10 10 9 6 7 7 7 6 5 4 4 4 5 5 5 3 4 7 7 4 5 4 4 5 6 7
Wind_Direction
221 198 201 196 193 198 225 252 260 265 264 250 257 280 293 275 247 235 256 285 323 357 330 5 347 13 345 356 10 21 28 47
223 204 214 202 202 198 216 248 264 271 275 273 276 267 267 277 255 247 248 272 282 313 340 347 53 20 7 4 14 31 31 51
165 201 208 208 208 217 236 236 239 248 274 278 290 264 245 269 271 249 267 309 293 299 97 35 2 22 18 8 24 23 30 358
183 190 201 210 215 220 227 242 254 266 286 288 294 282 264 258 253 273 242 288 281 304 244 179 250 307 322 355 23 6 12 13
290 212 202 207 212 207 219 227 240 241 273 275 290 289 271 302 241 222 240 262 265 285 316 169 229 246 266 308 355 0 350 339
331 334 351 303 250 225 232 233 231 254 275 275 274 276 265 275 268 158 234 246 256 256 230 199 222 248 239 254 324 341 342 321
312 311 322 295 259 285 249 254 247 253 253 266 272 290 251 260 269 251 226 213 244 247 258 222 219 243 230 227 230 348 329 352
312 297 287 286 282 249 253 262 252 262 263 254 258 270 245 260 267 238 234 214 233 247 274 238 237 239 246 220 198 214 334 339
325 326 320 307 289 247 221 250 245 249 258 264 254 245 249 249 247 248 225 244 248 252 261 266 246 226 242 222 204 188 206 255
314 319 318 314 320 297 276 259 261 244 242 249 261 245 240 248 227 240 259 264 257 263 271 273 253 244 221 224 214 208 182 196
313 318 315 331 330 289 282 271 264 286 276 253 241 257 247 239 237 258 255 255 267 273 274 275 286 251 234 221 216 208 199 192
312 326 329 336 351 12 343 303 306 296 296 294 267 256 255 241 258 235 236 250 248 248 267 265 293 286 248 238 224 203 196 218
319 324 315 318 320 330 335 348 352 354 31 346 314 274 257 252 234 260 236 230 197 229 244 220 227 269 257 205 183 189 201 208
317 316 317 318 316 323 327 331 343 350 48 352 328 331 315 282 259 297 249 259 254 238 246 206 234 232 251 232 193 190 183 155
314 304 311 313 322 315 319 318 325 302 296 281 295 344 332 328 311 227 284 295 269 273 278 242 228 236 210 190 171 154 155 142
332 337 356 340 334 338 340 319 323 323 319 302 297 302 297 286 305 296 249 243 272 292 300 268 272 244 224 192 159 122 145 224
16 36 12 6 1 344 338 329 322 323 325 312 296 265 258 284 295 291 274 254 241 249 280 300 59 24 180 141 173 191 203 215
45 20 345 353 347 339 332 321 317 334 325 302 285 294 292 287 286 294 294 279 269 261 289 253 131 156 185 200 199 208 225 240
27 356 338 352 336 332 325 321 326 322 309 315 309 294 280 268 271 291 291 301 290 314 315 297 245 207 231 226 208 203 217 226
359 350 343 320 325 327 323 329 327 321 318 314 299 299 287 284 305 292 318 309 259 255 281 268 255 221 253 247 212 220 218 224